GORIZONT 5 [-]

Last updated on Wed Jun 28 2023 00:02:54 GMT+0000 (Coordinated Universal Time)

1 13092U 82020A 23178.01017831 -.00000006 00000+0 00000+0 0 9994 2 13092 10.7682 310.5503 0034188 219.9757 328.3720 0.98531644110874
UTC large
Height (km)
Speed (km/s)
/
Latitude / Longitude
Inclination (degrees)
Orbital Period (minutes)
Azimuth
Elevation
Range (km)
Doppler Factor

Next 0 passes for location: London (51.5072 / 0.1276)

Sorry there are no passes over London.
GORIZONT 5 [-]